Regional Weather Roundup
Issued by NWS

Home | Current Version | Previous Version | Text Only | Print | Product List | Glossary Off
Versions: 1 2 3 4 5 6 7 8 9 10 11 12 13 14 15 16 17 18 19 20 21 22 23 24 25 26 27 28 29 30 31 32 33 34 35 36 37 38 39 40 41 42 43 44 45 46 47 48 49 50

000
ASUS45 KSLC 010010
RWRUT

UTAH REGIONAL WEATHER ROUNDUP
NATIONAL WEATHER SERVICE SALT LAKE CITY UT
600 PM MDT SUN AUG 31 2014

UTZ001>011-023>025-010100-

NORTHERN UTAH

CITY           SKY/WX    TMP DP  RH WIND       PRES   REMARKS
HILL AFB       SUNNY     72  30  21 W7        30.04S
LOGAN          MOSUNNY   72  41  32 CALM      30.01S
OGDEN          SUNNY     74  27  17 W10       30.02S
PROVO AIRPORT  MOSUNNY   75  43  31 NW9       30.01F
SALT LAKE CITY SUNNY     75  35  23 N8        30.00F
VERNAL         SUNNY     75  33  21 W12G22    29.94R
WENDOVER       SUNNY     79  37  22 E7        29.97F
HEBER CITY     SUNNY     72  36  26 SW13G20   30.05R
WEST JORDAN    SUNNY     75  43  31 N10       30.02F

$$

UTZ012>022-026-027-010100-

SOUTHERN UTAH

CITY           SKY/WX    TMP DP  RH WIND       PRES   REMARKS
BRYCE CANYON   SUNNY     76  34  21 W15G21    30.14F
CEDAR CITY     SUNNY     85  21   9 NW15G23   29.98F
MILFORD        SUNNY     84  35  17 NE12      29.95F
MOAB/CYNLANDS  SUNNY     89  29  11 W25       29.84R
PRICE          SUNNY     77  30  17 NW15G22   30.01R
ST GEORGE      CLEAR     99  34  10 W14       29.80S HX  93

$$

REGIONAL REPORTS     COLORADO/ARIZONA

CITY           SKY/WX    TMP DP  RH WIND       PRES   REMARKS
CRAIG, CO      MOSUNNY   70  43  37 NW12      30.02F
GRAND JUNCTION SUNNY     85  30  13 W18G28    29.87S
RIFLE          PTSUNNY   77  42  28 NW5       29.93R
MONTROSE       MOSUNNY   86  31  13 W17G28    29.95S
CORTEZ         MOSUNNY   86  33  15 W14G20    30.00S
PAGE, AZ       SUNNY     96  31  10 W14G29    29.86S HX  90
GRAND CANYON   SUNNY     82  34  17 SW17G24   30.13R
KINGMAN        SUNNY     96  33  11 SW16      29.88F HX  91
FLAGSTAFF      SUNNY     76  36  23 SW14G26   30.18S

$$

REGIONAL REPORTS    NEVADA/IDAHO/WYOMING

CITY           SKY/WX    TMP DP  RH WIND       PRES   REMARKS
LAS VEGAS, NV  SUNNY    103  29   7 S7        29.69F HX  96
ELY            SUNNY     78  28  16 VRB5      30.06F
ELKO           SUNNY     77  28  16 NW8G20    30.02S
POCATELLO, ID  SUNNY     69  36  29 SW16      30.02F
BURLEY         SUNNY     68  37  32 W14       30.00F
EVANSTON, WY   SUNNY     63  28  26 W21G29    30.13R
ROCK SPRINGS   SUNNY     65  33  30 W24G31    30.06R

$$



USA.gov is the U.S. government's official web portal to all federal, state and local government web resources and services.